USA 115 (MILSTAR-1 2)

Last updated on Tue Sep 16 2025 00:02:45 GMT+0000 (Coordinated Universal Time)

1 23712U 95060A 25258.39253723 -.00000032 00000+0 00000+0 0 9995 2 23712 13.9724 5.7583 0001844 193.8027 176.3790 1.00274427 30135
UTC large
Height (km)
Speed (km/s)
/
Latitude / Longitude
Inclination (degrees)
Orbital Period (minutes)
Azimuth
Elevation
Range (km)
Doppler Factor

Next 0 passes for location: London (51.5072 / 0.1276)

Sorry there are no passes over London.